This is the latest recevied weather packets stored in our database for station/object N6RDS-8. If no packets are shown the sender has not sent any weather packets the latest 10 day(s).
| Time | Temp. | Humidity | Pressure | Rain* | Wind** | Luminosity | Snow |
|---|---|---|---|---|---|---|---|
| 1777290843 | 4.44° C | 66% | 1017.7 hPa | 0 mm | - | 0 W/m² | - |
| 1777290539 | 4.44° C | 65% | 1017.7 hPa | 0 mm | - | 0 W/m² | - |
| 1777290236 | 5° C | 64% | 1017.6 hPa | 0 mm | - | 0 W/m² | - |
| 1777289933 | 5° C | 63% | 1017.4 hPa | 0 mm | - | 0 W/m² | - |
| 1777289628 | 5.56° C | 64% | 1017.6 hPa | 0 mm | - | 0 W/m² | - |
| 1777289325 | 5.56° C | 64% | 1017.6 hPa | 0 mm | - | 0 W/m² | - |
| 1777289020 | 5.56° C | 65% | 1017.5 hPa | 0 mm | - | 0 W/m² | - |
| 1777288718 | 5° C | 64% | 1017.4 hPa | 0 mm | - | 0 W/m² | - |
| 1777288415 | 5.56° C | 65% | 1017.5 hPa | 0 mm | - | 0 W/m² | - |
| 1777288111 | 5.56° C | 64% | 1017.4 hPa | 0 mm | - | 0 W/m² | - |
| 1777287808 | 6.11° C | 62% | 1017.2 hPa | 0 mm | - | 0 W/m² | - |
| 1777287505 | 6.11° C | 63% | 1017.2 hPa | 0 mm | - | 0 W/m² | - |
| 1777287200 | 6.67° C | 61% | 1017.2 hPa | 0 mm | - | 0 W/m² | - |
| 1777286897 | 6.67° C | 60% | 1017.2 hPa | 0 mm | - | 0 W/m² | - |
| 1777286594 | 6.67° C | 60% | 1017.4 hPa | 0 mm | - | 0 W/m² | - |
| 1777286291 | 6.11° C | 61% | 1017.2 hPa | 0 mm | - | 0 W/m² | - |
| 1777285989 | 6.67° C | 60% | 1017.1 hPa | 0 mm | - | 0 W/m² | - |
| 1777285686 | 6.67° C | 59% | 1017.2 hPa | 0 mm | - | 0 W/m² | - |
| 1777285383 | 6.67° C | 59% | 1017.2 hPa | 0 mm | - | 0 W/m² | - |
| 1777285080 | 6.67° C | 58% | 1017 hPa | 0 mm | - | 0 W/m² | - |
| 1777284778 | 7.22° C | 58% | 1017.2 hPa | 0 mm | - | 0 W/m² | - |
| 1777284474 | 7.22° C | 58% | 1017.1 hPa | 0 mm | - | 0 W/m² | - |
| 1777284171 | 7.78° C | 57% | 1017.1 hPa | 0 mm | - | 0 W/m² | - |
| 1777283868 | 8.33° C | 56% | 1017.1 hPa | 0 mm | - | 0 W/m² | - |
| 1777283565 | 8.33° C | 53% | 1017 hPa | 0 mm | - | 0 W/m² | - |
* Rain latest hour (hover to see other rain measurements)
** Current wind speed in m/s (hover to see current wind gust speed)